Wind_Speed
58 58 57 57 57 57 57 56 56 56 56 56 55 54 54 53 53 53 52 52 51 51 51 51 52 52 52 51 51 50 49 48 48 49 49 50 50 49 48 48 48 48 48 48 48 49 51 52 54 53 52 50 50 50 50 50 49 49 48 48 48 48 49 50 51 52 52 53 52 52 51 51 51 51 50 49 49 48 47 46 44 43 43 43 44 45
57 57 57 56 57 57 57 57 56 56 56 56 55 54 54 53 53 53 52 52 51 51 51 51 51 52 52 52 51 50 49 49 48 48 48 49 49 49 49 50 50 50 49 48 48 48 49 51 53 53 53 51 51 51 51 51 50 50 49 49 48 48 48 49 50 51 52 52 52 52 52 52 51 51 50 49 49 48 47 46 45 44 43 44 45 45
57 57 57 56 56 57 57 57 56 56 56 55 55 55 54 54 53 53 52 52 51 51 51 51 51 52 52 52 52 51 51 50 49 49 48 48 48 48 49 49 50 51 51 49 48 48 48 50 52 53 53 52 52 52 52 52 52 51 51 50 49 49 49 50 50 51 52 52 52 52 52 52 51 51 51 49 49 48 48 47 46 45 45 46 46 46
57 58 57 57 56 57 57 57 56 56 56 56 55 55 55 54 54 53 52 52 51 51 50 50 50 51 51 51 51 51 51 50 50 50 49 49 48 47 48 48 49 50 51 50 50 49 49 50 52 53 54 53 53 53 53 53 53 53 52 51 50 49 50 51 52 52 53 53 52 51 51 51 51 51 50 50 49 49 49 48 48 47 47 47 47 47
59 58 58 58 58 58 57 57 57 56 56 56 56 56 55 55 54 54 53 53 52 52 51 50 50 50 51 51 51 51 50 50 50 50 50 50 49 48 48 48 49 49 50 51 51 51 52 52 53 53 54 54 54 54 53 53 53 53 53 52 51 50 51 52 53 54 54 54 53 52 51 51 51 51 50 49 49 49 49 50 50 49 49 48 48 48
60 59 59 59 58 58 58 57 57 57 57 57 56 56 56 55 55 55 54 53 53 52 52 51 51 51 52 52 51 51 50 49 49 50 50 50 50 50 49 49 49 49 50 51 52 53 53 53 53 53 54 54 55 54 54 53 53 54 53 53 52 52 52 53 54 54 55 55 54 54 53 53 52 51 50 49 49 49 50 50 50 50 50 49 49 48
60 60 59 59 59 59 58 58 57 57 57 57 57 57 56 56 55 55 54 53 53 53 53 52 52 52 52 52 51 50 50 49 49 49 49 49 49 49 49 49 49 50 50 51 52 53 54 54 53 52 53 54 55 55 54 54 54 54 54 53 53 53 53 54 54 55 55 55 55 55 55 54 53 52 51 49 48 48 49 49 50 50 50 50 49 49
59 60 60 59 59 60 59 58 58 57 57 57 57 56 56 56 55 55 54 54 54 54 54 54 54 53 53 52 51 50 50 49 49 48 48 47 47 48 48 48 49 49 50 51 52 53 54 54 53 52 52 53 54 55 54 54 54 55 55 54 53 53 54 54 55 55 55 55 55 55 55 55 55 54 52 50 49 48 48 49 50 50 50 50 50 49
59 60 61 61 61 61 60 60 59 58 57 56 56 55 55 55 56 55 55 54 54 54 53 53 53 53 53 52 51 50 50 49 48 47 47 46 46 46 46 47 48 48 49 50 50 52 53 53 53 53 52 51 52 53 54 54 55 55 55 55 54 54 54 54 54 55 56 56 56 56 55 55 55 55 53 51 50 49 48 49 51 52 52 51 49 48
61 62 62 62 61 60 59 60 59 58 57 56 56 55 55 55 55 55 55 54 53 52 51 50 50 50 50 50 50 49 49 48 47 46 45 44 44 45 45 46 46 47 48 48 49 50 51 52 53 53 52 51 50 51 52 53 54 55 56 56 55 54 54 54 54 54 55 57 57 57 56 56 56 55 54 53 51 50 49 50 52 54 54 52 50 48
63 63 62 62 62 61 60 60 60 59 59 58 57 57 56 55 55 55 54 54 52 51 50 49 49 48 48 48 49 49 48 48 46 44 42 41 42 42 43 44 45 46 46 47 47 48 48 50 51 53 53 51 50 49 50 51 52 55 57 56 56 55 55 54 54 54 54 56 57 58 58 58 57 56 56 54 53 51 50 51 53 55 56 54 51 50
62 62 62 62 62 62 61 61 60 60 59 59 58 58 56 55 54 53 52 53 53 52 52 52 51 50 49 49 49 49 49 48 47 44 41 40 40 41 42 43 44 44 45 46 46 46 46 48 49 52 52 52 50 48 48 48 50 53 56 56 56 55 55 55 54 53 53 54 55 57 58 59 59 58 58 57 56 53 51 51 53 56 57 56 54 52
61 61 61 61 61 61 61 60 60 59 59 58 57 56 55 54 54 53 53 54 55 54 54 54 53 53 52 51 51 51 51 50 49 47 45 43 42 41 41 42 43 43 44 44 44 44 44 45 47 49 51 52 50 48 46 46 49 52 54 55 55 55 55 54 54 53 52 53 54 55 56 57 59 60 61 61 60 57 54 53 54 56 58 57 56 54
60 60 60 60 60 60 59 59 58 58 58 57 56 55 55 55 55 55 55 55 56 55 54 54 54 54 53 53 53 53 53 53 53 52 50 48 45 43 42 41 41 41 42 42 42 42 41 42 44 46 48 50 50 49 46 45 47 50 53 53 53 53 53 53 53 53 52 53 53 53 54 55 58 60 62 63 63 60 57 55 55 56 58 58 58 56
58 58 58 59 59 59 58 58 57 57 57 56 56 56 55 55 55 54 54 55 55 55 54 54 55 55 54 54 53 53 53 53 53 53 53 51 48 45 42 41 40 39 39 40 39 39 39 40 42 44 46 48 49 50 48 47 47 48 50 51 51 51 52 52 53 53 53 53 53 53 53 54 55 58 60 62 63 62 60 58 57 57 58 59 59 58
56 57 57 58 58 58 57 57 56 56 56 56 55 55 55 54 54 53 53 53 53 53 53 53 54 54 54 53 52 52 52 53 53 53 53 51 49 46 43 41 40 38 38 38 37 37 37 39 41 44 45 46 47 49 50 49 48 48 48 49 50 51 51 52 52 52 52 53 54 54 54 54 54 54 56 57 59 61 61 60 59 58 59 59 59 58
54 55 55 56 57 57 57 56 55 55 55 54 54 54 53 53 52 51 51 51 51 51 51 51 51 53 54 54 52 52 51 52 52 52 52 51 49 46 44 42 41 39 38 37 37 37 38 39 41 43 44 44 45 48 50 50 49 47 47 47 48 49 50 51 51 51 52 53 54 55 55 54 53 52 52 53 55 57 59 60 60 60 60 60 59 57
53 53 54 54 55 56 55 55 54 54 54 53 53 53 53 52 52 51 51 51 51 51 51 52 52 53 54 55 54 52 51 51 51 51 51 50 49 47 45 43 42 41 39 38 38 38 38 39 40 41 42 42 42 45 47 48 47 45 43 43 43 44 46 47 49 51 52 53 54 55 55 54 52 50 49 49 51 53 56 57 59 60 60 59 58 56
52 52 52 53 54 54 54 54 53 53 52 52 52 52 52 52 52 51 51 51 51 51 51 52 52 53 53 54 53 52 51 51 51 51 51 50 49 47 45 44 43 42 41 40 39 39 39 39 40 40 39 38 38 39 41 42 41 39 37 36 37 38 40 42 45 48 51 53 54 54 54 53 51 48 46 46 48 51 54 55 56 57 57 57 56 55
52 52 52 52 52 53 53 53 52 51 51 51 51 52 52 52 51 51 50 50 50 50 49 50 50 51 52 52 52 51 51 50 50 51 51 51 50 48 46 44 43 43 42 41 40 40 40 40 39 39 38 36 34 34 35 35 34 33 33 33 33 35 37 39 42 45 47 50 51 52 53 52 49 46 44 44 46 50 52 54 54 54 53 53 53 52
51 51 51 51 51 51 52 52 51 50 50 50 50 51 51 51 51 50 50 50 49 49 49 50 50 50 51 51 51 51 50 50 50 50 51 51 51 49 46 45 44 44 43 42 41 40 40 40 40 40 40 38 36 33 32 31 31 31 31 32 33 34 36 38 40 43 45 46 48 49 50 49 47 44 42 43 45 49 51 52 52 51 50 50 50 50
50 51 51 50 50 50 51 50 50 49 49 49 49 50 50 50 50 50 49 49 49 49 49 49 49 49 50 50 50 50 49 49 49 50 51 52 52 50 47 46 45 45 44 42 41 40 40 40 40 41 42 40 37 34 31 30 30 30 31 32 33 34 36 37 38 40 42 43 45 46 46 46 44 42 41 41 44 47 50 52 51 50 49 48 48 48
49 50 50 50 49 49 49 49 49 48 48 48 48 49 49 49 49 49 49 49 49 49 49 49 49 49 49 49 49 49 48 48 48 48 49 51 51 50 48 47 47 46 44 42 41 40 40 40 41 42 41 39 35 33 31 30 30 31 32 33 34 35 35 36 36 37 38 40 41 42 42 42 41 40 40 41 43 46 49 51 51 50 48 47 46 46
48 49 49 49 48 48 48 48 48 47 47 48 48 48 48 48 48 48 48 48 48 48 49 49 49 49 49 49 48 48 47 47 46 47 48 49 50 50 49 48 47 46 44 42 41 41 42 43 43 41 37 34 31 30 30 30 31 31 32 33 34 35 35 35 34 34 35 36 38 39 39 39 38 38 39 40 42 45 48 50 50 49 48 46 45 44
47 47 48 47 47 47 47 46 46 46 46 47 47 48 48 48 48 48 48 48 47 48 48 48 49 49 49 48 48 48 47 45 45 45 46 47 48 49 48 48 47 46 45 43 43 44 45 44 41 36 32 29 29 29 30 31 31 32 33 34 35 35 34 33 32 32 32 33 35 36 37 38 38 38 38 40 42 44 47 48 48 47 46 44 44 43
45 46 46 46 46 45 45 45 45 45 45 45 45 46 46 47 48 48 48 47 47 47 47 48 49 49 48 48 48 47 46 45 44 44 44 45 46 47 47 47 46 46 46 46 47 48 46 42 36 31 28 28 28 29 31 32 33 34 35 35 35 34 33 32 31 30 31 32 33 35 36 37 38 38 39 40 41 43 45 46 45 45 44 43 42 42
43 44 44 44 43 43 43 43 43 43 43 43 43 43 44 45 46 47 47 47 46 47 48 49 50 49 49 48 48 47 45 44 44 43 43 44 46 47 47 46 46 47 48 49 49 47 42 37 32 29 27 28 29 31 33 34 35 35 36 35 34 33 31 30 29 30 30 31 33 34 36 37 38 38 39 40 41 42 42 42 42 42 42 41 41 41
41 42 42 42 42 41 41 41 41 41 41 41 41 41 41 42 43 45 46 46 46 47 48 49 50 50 49 49 48 47 45 45 44 43 43 44 46 47 46 46 47 49 50 50 47 42 37 32 29 28 28 29 31 33 35 35 36 36 35 34 32 31 29 29 29 29 30 31 33 34 36 37 38 39 39 39 40 40 40 40 40 40 41 40 40 40
39 40 40 40 40 40 40 40 40 40 40 40 40 40 40 41 42 43 44 45 46 47 48 49 49 49 50 50 49 48 46 45 44 43 43 45 46 46 46 47 49 50 49 46 41 37 34 31 30 29 29 31 33 34 35 36 35 34 33 32 30 29 28 28 29 30 31 32 34 35 37 38 38 38 38 38 38 38 38 38 39 39 40 40 39 38
38 39 39 39 39 40 40 40 40 40 39 39 39 39 39 40 41 42 43 44 45 46 47 48 48 49 49 50 50 49 48 46 44 43 44 45 46 46 47 49 50 48 44 40 36 34 32 30 29 29 30 31 33 35 35 35 35 33 31 30 29 28 28 28 29 30 32 33 35 36 37 38 38 37 36 36 36 36 37 38 38 39 39 38 37 36
38 39 39 39 39 39 40 40 40 39 39 39 39 39 39 40 41 42 43 43 44 45 46 47 48 48 49 49 50 50 49 47 45 44 44 45 46 47 49 50 48 44 39 34 31 30 29 28 28 29 30 32 34 35 36 36 34 33 31 29 28 28 28 29 30 31 33 35 36 36 37 36 36 35 34 34 35 35 36 37 37 38 37 36 35 33
39 39 39 40 40 40 40 40 40 39 39 39 39 39 39 40 41 41 42 43 43 44 46 47 47 48 48 48 49 49 49 48 46 45 44 45 47 50 52 50 46 40 35 31 27 26 26 27 28 30 32 33 35 36 37 36 34 32 30 28 27 27 28 29 31 32 34 35 35 35 35 34 34 33 33 33 34 35 36 36 36 36 35 33 32 29
39 40 40 40 40 40 40 40 40 39 39 39 39 39 39 40 41 41 42 42 43 44 45 46 47 47 47 48 48 49 48 47 46 45 45 47 50 52 52 48 42 36 32 28 26 26 27 29 31 33 34 35 36 37 37 36 34 32 30 27 26 27 28 29 31 32 33 33 33 33 33 32 32 32 32 33 34 35 35 35 35 34 32 30 27 25
40 40 40 41 40 40 40 39 39 39 39 39 39 39 40 40 41 41 41 42 43 43 44 45 46 47 47 48 48 48 47 46 45 44 45 47 51 53 50 45 39 34 31 28 27 28 30 32 33 34 35 36 37 37 36 35 34 31 29 27 26 26 28 29 30 30 31 30 30 30 30 30 30 31 32 33 34 34 34 33 32 30 28 26 23 21
41 41 40 40 40 40 39 39 39 39 39 39 39 40 40 40 41 41 41 42 42 43 44 44 45 46 47 47 48 48 46 44 43 42 44 47 50 50 47 42 37 34 31 30 30 31 32 33 35 35 36 36 37 37 36 35 33 30 28 26 26 26 27 28 28 28 28 28 28 28 28 29 29 30 31 32 33 32 31 30 29 27 24 22 20 18
41 41 40 40 39 39 39 38 38 38 39 39 39 40 40 40 41 41 41 42 42 42 43 44 45 45 46 46 47 46 44 42 41 41 42 46 48 47 43 40 37 34 32 32 32 33 33 34 35 36 36 36 36 36 35 34 31 28 26 25 25 26 26 26 26 26 26 26 26 27 27 28 29 30 31 31 31 30 28 27 25 23 21 19 18 18
41 41 40 39 39 39 38 38 38 38 38 39 39 39 39 40 40 40 41 41 42 42 43 43 44 44 45 45 45 44 42 40 39 39 41 44 46 45 41 39 37 35 34 33 33 33 34 34 34 35 35 35 34 33 32 30 28 26 24 24 24 25 25 26 26 25 26 26 26 26 27 28 29 29 29 29 28 26 25 23 22 20 19 18 18 19
41 40 40 39 39 38 38 38 38 38 38 38 39 39 39 39 40 40 40 41 41 42 42 43 43 43 43 43 43 42 40 38 38 39 41 44 45 43 40 38 37 35 34 33 32 32 32 32 32 32 32 32 31 29 27 25 23 22 22 23 23 24 24 25 25 25 25 25 25 26 27 27 28 28 27 26 25 23 21 20 19 19 19 19 19 20
40 40 39 39 39 39 39 38 38 38 38 38 38 39 39 39 39 40 40 40 41 41 41 41 42 41 41 40 39 39 38 38 38 40 42 43 43 42 40 37 35 34 33 32 31 30 29 28 27 27 26 25 25 24 23 22 20 20 21 22 23 23 23 23 23 23 24 24 25 25 26 26 26 25 24 22 21 20 19 18 19 19 19 20 20 21
40 40 39 39 39 39 39 39 38 38 38 38 38 38 38 38 39 39 39 39 39 40 39 39 39 38 38 37 36 36 37 37 39 40 42 42 41 40 37 35 32 30 29 28 27 26 25 25 24 24 22 21 20 20 20 19 19 19 20 21 21 21 21 22 22 22 23 23 24 24 24 24 23 22 20 19 18 18 18 19 19 20 20 20 21 21
40 40 40 39 39 39 39 39 38 38 37 37 37 37 37 38 38 38 38 38 38 37 37 36 35 35 34 34 34 35 36 37 39 40 40 39 38 36 34 31 28 26 25 24 23 23 23 24 24 23 22 21 19 19 18 18 18 19 19 19 19 20 20 21 21 22 22 23 23 23 22 21 20 19 18 18 18 19 19 20 20 20 20 20 21 21
40 40 40 40 39 39 39 39 38 38 37 37 37 36 37 37 37 36 36 35 35 34 33 33 32 32 32 33 34 35 36 37 37 37 37 35 34 31 28 26 24 23 22 22 22 22 23 23 23 22 21 20 19 18 17 17 18 18 18 18 19 19 20 20 21 21 21 21 21 20 19 18 18 18 18 18 19 19 20 20 20 20 20 20 21 21
40 40 40 40 39 39 39 38 38 37 37 36 36 36 36 36 35 35 34 33 32 31 31 31 31 32 33 33 34 35 35 35 34 33 32 30 28 26 24 22 21 21 21 21 21 21 21 21 20 20 19 18 17 16 16 16 16 17 17 18 19 20 20 20 20 20 19 18 18 17 17 17 18 18 19 19 19 20 20 20 20 20 20 21 21 21
40 40 40 40 40 39 38 38 37 37 36 36 35 35 34 34 34 33 32 31 30 30 30 30 31 32 33 34 34 33 32 32 31 29 27 25 23 21 20 19 20 20 20 20 20 19 18 18 17 16 16 15 15 15 15 15 16 17 17 18 19 18 18 18 17 17 16 16 16 16 17 18 18 19 19 19 19 19 19 19 20 20 20 21 21 22
40 41 41 41 40 40 39 38 37 36 35 35 34 33 33 33 32 31 30 30 29 29 30 30 31 31 31 31 31 30 29 28 26 24 21 19 17 17 17 18 18 19 19 19 18 17 16 15 14 14 14 14 14 15 15 16 17 17 17 18 17 17 16 16 15 15 15 15 16 17 18 18 18 19 19 19 19 19 19 19 20 20 21 21 22 22
41 41 42 41 41 40 39 38 37 36 35 33 32 31 31 31 30 30 29 29 29 30 29 29 29 28 26 26 27 26 25 22 20 17 15 14 14 15 16 17 18 18 17 17 16 16 15 14 13 13 14 14 15 16 16 17 17 17 16 16 15 14 14 15 15 15 16 16 17 17 18 18 18 18 18 18 19 19 19 20 20 21 21 22 22 22
42 43 43 43 42 41 39 38 36 35 33 31 30 29 29 29 28 28 28 29 29 28 28 27 25 24 22 22 21 19 17 16 14 12 11 11 12 14 15 16 17 16 16 15 14 14 14 14 14 15 15 15 16 16 17 16 16 15 14 13 13 12 13 14 14 15 16 16 17 17 17 17 17 18 18 18 19 19 20 21 21 22 22 22 22 22
43 44 44 43 42 41 39 37 35 33 31 29 28 27 27 27 27 28 28 28 27 25 24 23 21 20 19 18 16 14 13 12 12 11 11 11 12 13 14 15 15 15 14 14 14 14 14 14 15 15 16 16 16 16 15 14 13 12 12 12 12 12 13 14 15 15 16 16 16 16 16 17 17 18 18 19 19 20 20 21 21 22 22 22 22 22
43 44 44 44 43 41 38 36 33 31 28 26 25 26 26 26 27 27 26 25 23 22 20 19 17 16 15 14 13 12 12 12 12 11 10 11 12 13 13 14 14 14 14 14 14 14 14 15 15 15 15 15 14 14 12 11 11 11 11 11 12 13 14 14 14 15 15 15 15 16 16 17 17 18 18 19 20 20 21 21 22 22 22 22 22 22
44 45 45 44 42 40 37 34 31 28 26 25 25 25 26 26 26 25 23 22 20 19 17 16 15 14 13 13 12 12 11 11 10 10 10 10 11 12 12 13 13 13 13 13 13 13 14 14 15 15 14 13 12 11 10 10 10 10 11 12 13 13 13 14 14 14 14 15 15 15 16 17 17 18 19 19 20 20 21 21 22 22 22 22 22 21
45 45 44 43 41 38 35 31 28 26 24 24 24 25 25 25 24 23 21 20 18 17 16 14 14 13 12 12 11 10 9 8 8 8 9 9 10 10 11 11 11 11 11 12 12 13 13 13 13 12 12 11 10 10 9 10 10 11 12 13 13 13 13 13 14 14 14 15 15 16 16 17 18 18 19 20 20 20 21 21 22 22 22 22 21 21
Wind_Direction
280 280 280 280 280 280 280 279 280 280 280 279 279 279 279 279 278 278 277 276 274 274 274 274 275 276 276 276 276 275 274 272 270 268 267 267 267 268 268 268 268 268 267 266 265 264 263 262 259 257 255 253 251 250 250 250 250 250 251 252 253 252 252 251 250 250 250 249 248 247 247 248 249 249 249 249 249 250 251 251 252 253 254 255 256 257
280 280 280 280 280 280 280 280 280 280 280 280 280 280 280 279 279 279 278 277 276 274 274 273 273 274 274 275 276 276 275 274 273 271 270 268 268 267 267 267 267 267 266 265 265 264 263 262 260 258 255 252 250 249 248 247 248 248 249 250 251 252 251 250 249 248 248 248 248 247 248 248 249 249 250 250 250 250 250 251 251 252 254 256 258 258
281 281 281 281 280 280 280 280 280 280 280 281 281 281 281 280 280 280 279 279 278 277 276 275 274 273 273 273 274 275 275 275 275 274 273 271 270 269 268 267 267 267 267 267 266 265 264 263 261 258 255 252 250 248 247 246 245 246 247 248 250 251 250 249 249 248 248 248 247 247 247 248 248 249 250 250 250 250 250 250 251 252 253 255 257 259
282 282 282 282 281 281 281 281 281 281 281 281 281 282 281 281 281 281 280 281 280 279 278 277 276 275 274 273 273 273 274 274 274 275 274 274 273 271 270 268 268 267 267 267 267 267 267 265 263 260 256 252 249 247 246 245 244 244 245 247 248 249 249 249 249 249 248 248 247 247 247 247 248 249 250 251 251 251 251 250 250 250 251 253 255 258
283 283 283 283 282 282 281 281 282 282 282 282 282 282 282 282 282 282 281 281 281 280 279 278 277 276 276 275 274 274 274 274 274 274 275 275 274 273 272 270 269 268 268 267 267 268 268 267 265 262 257 252 249 247 246 244 243 243 244 246 247 248 248 249 250 250 249 248 248 248 247 247 248 249 250 250 251 251 251 251 250 250 249 251 253 256
284 284 284 284 283 283 283 283 282 283 283 283 283 283 283 283 283 283 283 282 281 280 280 278 278 277 277 277 277 277 276 275 275 274 274 274 274 273 273 272 271 270 269 268 267 267 268 268 267 264 259 254 249 246 245 244 243 243 244 245 246 247 248 248 249 250 250 250 249 248 248 248 248 249 249 249 250 250 250 251 251 250 250 250 252 255
286 285 285 284 284 284 283 283 283 283 284 284 284 284 284 283 283 283 283 282 282 282 281 280 280 279 279 279 279 278 278 277 276 275 274 274 274 273 273 272 271 271 270 269 268 268 268 268 268 265 260 255 250 247 245 245 244 244 244 245 246 247 247 248 249 249 250 250 250 249 249 249 249 249 248 248 249 249 250 250 251 251 250 250 252 254
287 286 285 285 285 284 284 284 284 284 284 284 284 284 284 284 283 283 283 283 283 283 284 283 282 281 281 280 280 279 278 277 277 276 275 275 274 273 273 272 272 271 271 270 269 269 269 269 268 266 261 256 251 247 246 245 245 245 245 245 246 247 248 249 250 250 250 250 250 250 250 250 249 248 247 247 248 249 249 250 250 250 250 250 251 253
286 285 285 284 285 285 285 284 283 284 284 284 284 284 284 284 283 283 284 284 285 285 285 285 284 283 283 282 281 281 279 278 277 277 276 276 275 274 273 273 272 272 271 271 271 270 270 270 269 267 263 257 252 248 246 246 246 246 246 246 246 247 249 250 251 251 251 250 249 249 250 251 250 248 247 246 246 247 248 249 249 249 249 250 250 252
285 285 285 284 284 285 285 284 283 283 283 283 283 283 283 284 284 285 285 285 285 285 285 285 285 284 284 283 283 282 282 280 278 277 277 277 277 276 275 274 273 273 272 272 272 272 272 272 271 268 264 259 254 249 247 246 246 246 247 247 248 249 249 251 252 253 253 251 250 249 249 250 250 249 247 246 245 246 247 248 249 250 250 250 250 250
286 285 286 285 284 284 283 283 283 283 283 283 283 283 283 284 286 286 286 285 284 283 283 284 284 284 284 283 284 284 284 283 280 278 278 278 278 277 276 275 274 274 274 274 274 274 275 275 273 271 266 261 255 251 248 246 245 246 248 248 249 250 250 251 252 254 255 254 253 250 249 249 249 249 248 247 246 246 247 247 249 251 252 252 251 251
287 287 286 286 285 284 284 283 283 283 283 284 285 285 285 285 286 286 285 284 283 283 283 283 282 282 282 283 283 284 284 284 283 281 280 279 279 278 277 276 275 275 275 275 275 276 276 277 276 273 268 261 255 252 249 248 247 247 248 249 250 250 250 251 252 254 256 257 256 254 251 249 248 249 249 248 247 246 246 246 248 251 253 254 253 253
288 287 287 286 286 285 285 284 284 284 284 285 286 286 286 285 285 285 284 284 283 284 284 284 283 281 281 281 282 283 284 285 285 284 283 282 281 281 280 278 276 275 274 274 274 275 276 277 277 275 270 261 254 251 250 250 249 249 250 251 251 251 251 251 252 254 256 257 258 257 255 252 250 249 249 248 247 246 245 245 247 250 252 254 254 254
289 289 288 288 286 286 285 285 286 285 285 285 285 285 285 285 285 286 286 285 285 285 285 285 283 282 280 280 281 282 283 284 285 285 284 284 284 283 283 281 278 276 275 273 273 273 275 277 279 278 273 263 254 249 248 249 251 251 252 253 253 252 252 252 253 254 256 257 258 259 258 255 253 251 250 249 248 246 245 244 245 248 251 253 254 254
291 291 290 289 288 287 286 286 286 286 285 285 285 285 286 286 286 287 287 287 287 287 287 286 284 282 280 279 280 280 282 283 283 284 284 284 284 284 284 283 280 278 275 274 273 274 276 279 281 280 277 267 256 248 246 247 249 252 253 255 254 254 253 253 253 254 254 255 257 259 259 258 256 254 253 252 250 248 246 244 245 247 250 253 254 255
292 292 292 290 289 288 287 287 287 287 286 285 285 286 287 287 287 287 287 287 288 288 288 287 286 284 281 279 279 280 282 283 283 284 284 283 283 283 283 283 282 279 277 275 274 275 277 280 282 282 279 271 260 251 246 246 248 250 252 254 254 254 253 252 252 251 252 253 254 256 257 258 258 258 257 255 254 251 249 246 245 246 248 252 254 256
293 292 292 291 290 289 288 287 287 287 287 286 286 286 287 287 287 286 286 286 286 287 287 287 286 285 283 281 280 280 282 284 285 285 285 284 283 282 282 282 281 280 277 276 275 276 278 280 282 282 280 273 262 253 247 246 247 249 251 252 253 253 252 250 249 249 249 250 251 253 255 257 258 260 260 258 257 255 252 249 247 246 248 250 253 256
292 292 292 291 291 290 289 289 288 288 287 288 287 287 286 286 286 286 285 286 286 286 285 285 284 284 284 284 282 282 283 285 286 286 286 284 283 282 281 281 280 279 277 275 274 275 276 279 281 282 280 273 263 253 248 247 248 250 252 253 254 254 253 251 250 249 249 249 250 251 252 255 257 260 261 261 259 257 255 253 250 248 248 250 253 255
291 291 291 291 291 291 290 289 289 289 289 289 289 288 288 287 286 286 286 286 286 286 286 285 285 284 284 284 283 283 284 286 287 287 286 285 284 283 282 281 279 278 276 274 274 274 275 277 279 280 279 273 263 254 249 249 250 253 254 255 256 256 256 255 254 252 251 250 250 250 251 253 255 258 261 261 260 258 256 255 253 251 250 251 252 254
291 290 290 290 290 290 290 289 289 289 290 290 289 289 289 288 287 287 286 286 286 285 285 284 284 284 284 283 283 283 284 285 286 286 286 285 284 283 282 281 279 278 276 274 273 273 274 275 276 277 276 272 265 256 251 251 251 253 254 256 257 258 258 258 257 257 255 254 252 251 251 252 254 257 259 260 258 256 255 255 254 253 252 252 253 254
290 290 289 289 289 289 289 289 289 289 290 290 290 289 289 288 287 287 286 286 285 284 283 283 283 282 282 282 282 282 283 284 284 284 284 284 284 283 282 281 279 277 275 274 273 273 273 273 274 274 274 271 265 259 254 253 253 254 254 255 256 257 258 259 259 259 258 257 255 253 252 252 253 255 257 257 256 254 253 253 253 254 253 253 254 254
289 288 288 288 288 288 288 289 289 289 289 289 289 288 288 288 287 286 286 285 285 284 283 283 282 282 281 281 281 281 282 282 283 283 283 283 282 282 281 280 279 277 276 274 273 273 273 273 274 273 272 270 265 260 257 256 256 256 256 256 256 257 259 261 262 261 260 258 257 255 254 253 254 254 255 254 253 252 251 251 252 253 254 254 255 254
288 288 287 287 287 287 288 288 288 288 288 288 287 287 286 286 286 286 285 285 284 284 283 283 282 281 281 281 281 280 280 281 281 282 282 282 281 281 280 279 278 277 275 274 274 274 274 274 275 274 273 269 265 261 260 260 261 260 259 257 257 258 261 263 264 263 261 259 258 257 256 256 255 255 254 253 251 250 250 250 251 253 254 255 254 253
287 288 288 288 288 288 288 288 288 288 287 287 286 286 286 285 285 285 284 284 284 283 283 283 282 281 281 280 280 279 279 279 280 280 281 281 280 279 278 278 277 277 275 274 274 275 276 276 275 274 271 268 265 264 264 265 264 263 261 260 260 261 262 263 263 262 260 258 257 257 257 257 257 256 254 252 251 250 249 250 251 252 253 253 252 249
288 289 289 289 289 289 289 288 288 287 286 286 286 285 285 285 285 284 284 283 283 283 283 282 281 281 280 279 279 278 278 278 279 280 280 280 279 278 277 276 276 276 275 274 275 276 276 275 274 272 269 267 268 268 269 268 267 265 263 263 263 263 263 262 260 258 257 256 256 256 256 257 257 256 254 252 251 250 249 249 250 251 251 250 248 245
288 289 289 289 289 289 288 287 286 286 285 285 285 285 285 285 284 284 283 283 282 282 282 281 280 279 279 278 278 278 278 279 279 279 279 278 278 277 275 274 274 274 275 275 276 276 275 273 270 268 268 270 272 272 272 270 269 267 266 266 266 265 263 260 257 255 254 254 254 255 256 256 256 255 253 252 250 249 249 248 249 248 247 246 243 241
287 288 288 288 288 288 288 287 286 284 283 283 283 283 283 284 283 283 282 282 282 281 281 279 279 278 278 278 278 278 279 279 279 278 277 277 276 275 273 273 273 274 275 276 276 275 273 269 266 266 269 272 273 273 273 272 271 270 269 268 267 264 261 257 254 252 252 252 253 254 254 254 254 253 251 250 248 247 247 246 245 244 243 241 239 239
288 288 289 288 288 288 288 287 285 284 283 282 282 282 282 282 282 282 281 281 280 280 279 278 278 278 278 278 278 279 279 279 278 278 277 276 275 273 272 272 273 275 276 275 274 272 268 264 263 264 268 270 272 272 273 273 272 271 270 268 264 260 256 252 250 250 250 251 252 252 252 252 251 250 249 247 246 244 243 242 241 240 238 237 237 237
289 289 289 289 288 288 287 287 286 284 284 283 282 282 281 281 281 280 279 279 278 278 277 277 277 277 277 278 278 278 278 278 278 277 276 275 275 273 272 274 276 276 275 273 271 268 264 261 261 263 265 268 270 271 272 272 271 269 266 263 258 254 250 248 247 248 249 250 250 250 250 249 248 247 245 244 242 240 239 238 237 236 235 235 236 237
291 290 289 288 288 288 288 287 286 285 284 283 282 281 280 279 279 278 278 277 277 277 276 276 276 276 276 277 277 278 278 278 277 276 276 276 276 275 276 277 277 275 273 270 268 266 264 262 262 263 264 266 268 270 270 270 267 264 260 255 251 248 246 245 245 246 247 247 247 247 247 246 244 242 241 239 237 236 235 234 234 234 234 235 236 238
294 293 292 291 290 290 289 289 288 287 285 284 282 281 280 279 278 277 277 277 276 276 275 275 275 275 275 275 276 277 278 278 277 277 277 278 278 279 279 278 276 273 269 267 266 267 266 265 264 263 264 266 267 268 268 266 263 258 253 248 245 243 242 243 244 245 245 245 245 244 243 241 239 237 235 234 233 232 232 232 233 233 234 236 238 241
297 296 295 294 293 292 292 291 290 289 287 285 283 281 280 279 278 277 277 276 275 275 274 274 274 274 274 274 274 275 276 277 278 278 279 280 281 281 280 278 274 269 266 263 264 267 267 265 264 264 265 266 267 267 265 262 258 254 249 243 240 239 240 241 243 243 243 242 241 239 237 235 233 232 231 230 230 231 231 232 232 233 235 238 240 243
300 299 298 297 296 295 294 293 292 291 289 286 284 283 281 279 278 277 277 276 275 274 274 273 273 273 273 272 272 273 274 275 277 279 280 281 281 280 279 276 270 264 260 259 259 261 263 263 263 263 265 266 266 265 262 259 255 250 245 240 237 237 238 239 240 240 239 238 236 234 231 229 228 228 228 228 229 230 230 231 233 235 237 240 243 245
301 301 300 300 299 297 296 295 293 292 290 287 285 283 282 280 279 278 277 276 275 274 273 273 272 272 272 271 271 272 272 274 276 278 280 280 280 279 277 272 265 258 254 254 255 257 259 261 262 264 265 265 264 262 258 254 250 246 241 237 234 234 235 236 236 235 233 231 229 227 225 224 225 226 227 228 229 229 231 232 234 237 240 242 244 244
303 303 302 302 301 300 298 296 294 292 290 288 286 284 283 281 280 279 278 276 275 274 273 272 272 271 271 271 271 271 272 274 275 277 279 279 279 277 274 268 260 254 251 251 253 256 258 260 263 264 264 263 261 258 254 250 245 241 236 232 230 230 230 230 228 227 225 223 222 221 221 222 224 225 227 228 229 230 232 234 237 239 241 242 242 240
305 304 304 304 303 302 300 298 296 294 291 288 286 285 283 282 281 280 279 277 276 275 274 273 272 271 271 271 271 272 273 274 275 276 278 278 278 275 271 264 258 252 249 250 252 255 257 260 262 263 262 259 255 251 248 244 239 233 228 226 225 224 223 221 219 217 216 216 217 218 220 222 224 226 227 229 230 232 234 237 239 240 240 239 237 234
306 306 306 305 305 304 302 300 298 295 292 290 287 285 284 283 282 281 280 279 277 276 275 274 272 271 271 271 271 272 273 274 275 276 277 277 276 274 269 262 257 253 250 250 251 254 256 258 260 260 259 254 248 243 238 235 230 225 221 219 218 217 215 212 210 210 211 213 215 218 221 223 225 227 228 230 232 234 237 239 239 239 236 233 231 230
307 307 307 306 306 305 304 302 299 297 294 292 289 287 285 284 283 282 281 280 279 278 276 275 273 272 271 271 271 272 272 273 274 275 275 275 274 272 266 260 256 253 251 250 251 253 254 255 255 253 250 246 239 232 227 223 220 217 215 213 211 209 207 206 206 208 210 214 217 220 222 224 226 228 230 233 235 237 238 238 237 235 231 229 228 228
308 309 308 308 307 306 306 304 302 299 296 293 291 289 287 286 285 283 282 281 280 279 277 276 274 273 272 271 271 271 272 273 273 274 274 273 271 268 263 258 253 251 251 251 250 250 250 249 246 241 236 230 224 218 213 210 209 209 208 206 204 203 203 205 207 210 213 217 220 222 225 227 229 231 234 236 238 238 237 235 232 230 229 228 228 230
310 310 309 309 309 308 308 307 305 302 299 296 293 291 289 287 285 284 283 282 281 280 278 277 275 274 273 271 271 271 272 273 273 272 271 269 266 263 258 254 250 248 247 246 245 243 240 236 230 224 217 211 207 204 201 199 199 200 202 202 202 203 204 207 211 214 217 220 223 225 228 230 233 235 236 236 235 233 231 229 228 228 228 229 230 232
310 311 311 310 310 310 310 309 308 306 303 300 297 294 291 289 287 285 283 282 281 280 279 278 277 275 273 272 273 273 273 272 271 269 267 264 260 256 252 248 245 241 238 236 233 230 225 219 213 207 200 196 194 194 194 194 195 196 199 201 203 206 209 212 216 219 221 224 226 229 231 233 235 235 234 231 229 227 226 226 226 228 229 231 232 233
311 312 312 312 312 312 311 311 310 308 306 303 300 297 294 291 289 287 285 284 282 281 280 279 278 277 276 276 275 274 273 271 268 265 261 257 253 249 244 239 233 229 225 222 218 214 211 206 200 194 189 187 188 189 191 193 195 197 200 203 206 210 213 217 220 223 225 228 230 232 233 233 232 230 228 226 225 225 226 226 227 229 230 232 233 233
312 313 314 314 314 314 313 312 311 309 307 304 301 298 296 293 291 289 287 285 284 283 281 280 279 279 279 277 275 272 269 266 262 258 253 249 245 240 233 226 219 215 212 208 204 201 198 194 190 186 184 185 187 190 193 196 199 202 205 208 211 215 218 221 225 227 229 231 232 231 230 228 227 225 224 224 224 225 226 228 229 230 231 232 233 234
314 315 315 316 316 316 315 313 312 310 307 304 301 298 296 293 291 289 287 286 285 284 283 281 280 279 277 274 268 264 261 258 254 249 245 241 236 229 220 212 206 203 201 196 191 186 184 183 182 182 184 187 190 194 198 202 206 209 211 214 217 221 224 226 228 229 230 229 228 227 225 224 223 223 223 224 225 226 228 229 230 231 232 233 233 234
315 316 317 318 318 318 317 315 312 310 307 304 300 297 295 292 290 288 287 287 286 285 284 282 279 275 270 264 259 254 250 248 244 240 235 229 222 213 204 198 195 192 190 185 180 176 175 176 180 185 188 192 196 200 204 208 212 214 217 219 222 224 225 227 227 226 225 224 223 222 221 221 222 222 223 224 226 227 229 230 231 232 233 234 234 236
318 319 320 320 320 319 318 315 312 309 306 302 299 297 294 291 289 288 288 288 287 285 282 277 271 265 257 252 248 244 239 235 231 226 218 209 201 195 191 188 185 183 180 177 174 173 175 179 185 191 196 200 203 206 209 213 216 219 221 223 224 225 225 226 224 222 220 219 219 220 221 221 222 223 224 225 227 228 230 231 232 233 234 235 236 237
320 321 322 322 321 320 317 315 311 308 304 301 299 297 294 292 291 290 289 288 285 280 274 267 259 250 243 238 234 229 222 214 205 196 190 186 184 183 183 182 180 178 175 174 174 176 180 186 191 196 201 206 209 212 214 216 218 221 223 224 223 223 222 222 221 220 219 219 219 220 221 221 222 223 225 227 228 230 231 233 234 235 236 237 238 239
322 323 323 322 321 319 316 313 310 306 302 300 300 299 296 294 293 291 288 284 278 269 259 250 242 233 226 220 213 203 191 179 169 165 168 174 178 180 180 180 178 176 175 176 179 184 189 195 199 203 206 209 212 214 216 218 219 220 220 219 219 218 217 218 219 219 219 219 220 221 222 223 224 225 227 229 230 232 234 235 237 238 239 240 240 240
323 323 323 322 320 318 315 312 308 305 303 303 304 303 299 297 293 289 282 274 265 253 239 228 219 210 201 192 182 171 160 153 152 155 163 171 177 179 179 179 178 177 179 181 186 192 197 202 207 210 212 213 214 215 216 216 216 215 215 215 215 215 216 217 219 220 220 221 222 223 224 225 227 228 230 231 233 235 237 238 239 240 241 240 240 240
324 324 323 322 320 317 314 311 308 306 307 309 309 306 300 296 291 284 273 261 248 233 218 205 193 182 172 162 152 143 138 139 145 154 165 173 178 179 179 179 179 181 185 190 195 201 207 211 214 216 218 219 219 217 215 213 212 212 213 214 215 216 217 218 220 222 222 223 225 226 228 230 231 232 234 235 237 238 239 240 241 241 241 240 239 238
324 324 323 321 319 316 314 311 310 311 313 313 311 306 298 290 282 272 259 244 227 211 197 184 169 156 146 138 132 127 129 136 147 160 171 178 181 182 182 182 184 187 193 199 205 211 215 218 219 220 222 224 223 218 214 212 212 213 214 216 218 219 220 221 223 225 226 227 229 230 232 234 236 237 238 239 240 241 241 242 242 241 241 240 238 237
Height
2887 2886 2886 2886 2884 2882 2880 2881 2881 2880 2878 2878 2879 2879 2879 2878 2878 2878 2879 2879 2879 2878 2878 2877 2876 2875 2875 2874 2875 2875 2876 2877 2877 2877 2877 2877 2877 2877 2877 2877 2877 2876 2875 2874 2874 2874 2874 2875 2875 2876 2876 2876 2877 2878 2879 2879 2880 2881 2882 2883 2883 2884 2884 2885 2886 2887 2887 2888 2889 2890 2891 2892 2893 2894 2894 2895 2897 2898 2899 2900 2901 2902 2902 2903 2904 2904
2884 2883 2882 2882 2881 2879 2876 2876 2877 2876 2874 2873 2873 2873 2873 2873 2872 2872 2872 2873 2873 2873 2873 2872 2872 2871 2871 2870 2870 2870 2871 2871 2872 2872 2872 2872 2873 2873 2873 2872 2872 2871 2870 2870 2869 2869 2870 2870 2870 2870 2870 2871 2872 2872 2873 2874 2875 2876 2877 2878 2879 2879 2880 2881 2882 2882 2883 2884 2884 2886 2887 2888 2889 2889 2890 2891 2893 2894 2895 2896 2897 2898 2898 2899 2900 2900
2879 2878 2877 2877 2877 2875 2873 2872 2873 2873 2871 2869 2869 2869 2868 2867 2867 2866 2867 2867 2867 2867 2867 2867 2867 2867 2866 2866 2866 2866 2866 2866 2867 2867 2867 2867 2868 2868 2868 2868 2867 2867 2867 2866 2865 2865 2865 2865 2865 2865 2865 2866 2867 2868 2868 2869 2870 2871 2872 2873 2874 2875 2876 2877 2877 2878 2878 2879 2880 2881 2883 2884 2884 2885 2886 2887 2889 2890 2891 2892 2893 2893 2894 2895 2896 2896
2874 2873 2872 2872 2872 2871 2869 2869 2868 2868 2867 2866 2864 2864 2864 2863 2862 2862 2862 2862 2861 2861 2862 2862 2862 2861 2860 2861 2861 2861 2862 2862 2862 2862 2862 2862 2863 2863 2863 2863 2863 2862 2862 2862 2862 2861 2861 2860 2860 2860 2860 2861 2862 2863 2864 2864 2865 2866 2867 2868 2869 2870 2871 2872 2873 2873 2874 2875 2876 2877 2878 2879 2880 2880 2881 2883 2884 2885 2887 2888 2889 2889 2890 2891 2891 2892
2870 2869 2867 2867 2866 2865 2865 2865 2864 2863 2862 2861 2860 2860 2859 2859 2858 2857 2857 2857 2856 2856 2856 2856 2856 2855 2855 2855 2856 2856 2857 2857 2857 2857 2857 2857 2857 2858 2858 2858 2858 2858 2858 2858 2858 2857 2856 2856 2855 2855 2856 2856 2857 2859 2859 2860 2861 2862 2863 2864 2865 2866 2867 2868 2869 2869 2869 2870 2871 2873 2874 2874 2875 2876 2877 2879 2880 2881 2882 2883 2884 2885 2886 2887 2887 2888
2864 2864 2863 2862 2861 2860 2860 2860 2860 2859 2858 2857 2856 2855 2855 2854 2854 2853 2852 2852 2852 2851 2850 2850 2850 2850 2850 2850 2850 2851 2852 2852 2852 2852 2852 2852 2852 2852 2852 2852 2852 2852 2853 2853 2853 2852 2852 2851 2851 2851 2852 2852 2853 2854 2854 2855 2857 2858 2859 2859 2860 2862 2863 2864 2864 2865 2865 2866 2867 2868 2869 2870 2870 2871 2873 2874 2875 2877 2878 2879 2880 2881 2882 2882 2883 2884
2859 2859 2859 2858 2856 2856 2855 2855 2855 2855 2854 2852 2851 2851 2850 2850 2849 2849 2848 2848 2847 2846 2846 2845 2845 2846 2845 2845 2846 2846 2846 2846 2846 2846 2847 2847 2847 2847 2847 2847 2847 2847 2847 2848 2847 2847 2847 2847 2847 2847 2847 2847 2848 2849 2850 2851 2852 2853 2854 2855 2856 2857 2858 2859 2860 2860 2861 2862 2863 2863 2864 2865 2866 2867 2869 2870 2871 2872 2874 2874 2875 2877 2877 2878 2878 2879
2854 2854 2854 2853 2852 2851 2850 2850 2851 2850 2850 2848 2847 2846 2845 2845 2844 2844 2843 2843 2843 2842 2841 2841 2840 2840 2840 2841 2841 2841 2841 2841 2841 2841 2841 2842 2842 2842 2843 2843 2843 2842 2842 2842 2842 2842 2842 2842 2842 2842 2842 2843 2843 2844 2845 2847 2847 2848 2849 2850 2851 2853 2854 2855 2855 2856 2857 2857 2858 2859 2860 2861 2862 2863 2864 2866 2867 2868 2869 2870 2871 2873 2873 2874 2874 2875
2851 2849 2849 2849 2848 2847 2845 2845 2846 2846 2846 2844 2843 2842 2841 2840 2839 2839 2839 2838 2838 2838 2838 2836 2835 2835 2835 2835 2835 2835 2835 2835 2835 2836 2836 2837 2837 2837 2838 2838 2838 2838 2838 2838 2838 2837 2837 2837 2837 2837 2837 2838 2839 2840 2841 2842 2843 2844 2844 2845 2846 2848 2849 2850 2851 2852 2853 2853 2854 2854 2855 2857 2858 2859 2860 2861 2863 2864 2865 2866 2867 2869 2869 2869 2870 2871
2847 2846 2844 2844 2844 2844 2842 2841 2841 2842 2842 2840 2839 2839 2838 2837 2835 2834 2834 2833 2834 2834 2834 2833 2832 2831 2830 2830 2830 2829 2829 2829 2830 2831 2832 2832 2832 2833 2833 2833 2833 2833 2833 2833 2833 2833 2833 2833 2833 2832 2832 2833 2834 2836 2837 2838 2838 2839 2839 2840 2842 2843 2844 2846 2847 2848 2849 2849 2849 2850 2851 2852 2854 2855 2856 2857 2858 2859 2861 2862 2864 2864 2865 2865 2866 2867
2842 2841 2840 2839 2838 2839 2839 2837 2836 2836 2836 2835 2834 2834 2834 2834 2833 2832 2830 2829 2828 2829 2829 2829 2828 2827 2826 2825 2825 2824 2824 2824 2824 2826 2827 2828 2828 2828 2828 2828 2828 2828 2828 2828 2828 2828 2828 2828 2828 2828 2827 2828 2829 2831 2832 2833 2833 2834 2834 2835 2837 2838 2839 2841 2842 2843 2844 2844 2845 2846 2847 2849 2850 2851 2852 2853 2854 2855 2857 2858 2859 2860 2861 2861 2862 2863
2837 2836 2835 2834 2833 2833 2833 2832 2832 2831 2831 2830 2829 2828 2828 2829 2829 2829 2827 2825 2823 2823 2824 2824 2823 2823 2822 2821 2820 2820 2819 2819 2819 2820 2821 2823 2823 2823 2823 2823 2823 2823 2823 2823 2823 2823 2823 2824 2823 2823 2823 2823 2824 2825 2827 2828 2828 2829 2829 2831 2832 2834 2835 2836 2837 2838 2839 2840 2841 2841 2843 2844 2846 2847 2848 2849 2850 2851 2853 2854 2855 2856 2857 2857 2858 2858
2833 2832 2831 2829 2829 2829 2828 2828 2827 2826 2826 2826 2826 2825 2824 2824 2824 2825 2823 2821 2819 2819 2819 2818 2818 2818 2818 2818 2817 2816 2815 2814 2814 2815 2816 2817 2818 2819 2819 2818 2818 2818 2818 2818 2818 2818 2819 2819 2819 2818 2818 2818 2819 2820 2822 2823 2823 2824 2825 2826 2827 2829 2830 2831 2832 2834 2835 2836 2836 2837 2838 2839 2841 2842 2843 2844 2845 2847 2848 2849 2850 2852 2852 2853 2853 2854
2829 2828 2826 2825 2824 2824 2824 2824 2823 2822 2822 2822 2822 2821 2820 2819 2819 2819 2818 2815 2815 2815 2815 2814 2812 2812 2813 2813 2813 2813 2812 2811 2811 2811 2811 2811 2813 2814 2815 2814 2814 2814 2814 2813 2813 2814 2814 2814 2814 2813 2813 2812 2813 2814 2816 2817 2819 2820 2820 2821 2823 2824 2825 2826 2828 2829 2830 2832 2832 2833 2834 2835 2836 2837 2839 2840 2841 2842 2843 2844 2845 2847 2848 2848 2849 2849
2824 2824 2822 2821 2820 2820 2820 2819 2819 2818 2818 2818 2817 2816 2815 2815 2814 2814 2813 2811 2810 2810 2810 2809 2807 2807 2808 2808 2809 2809 2808 2807 2807 2806 2806 2807 2808 2809 2810 2809 2809 2809 2809 2809 2808 2809 2809 2809 2809 2808 2808 2807 2808 2809 2810 2812 2814 2815 2816 2817 2818 2819 2821 2822 2824 2825 2826 2827 2828 2829 2829 2830 2831 2832 2834 2835 2836 2837 2839 2840 2841 2842 2843 2844 2844 2845
2821 2820 2818 2817 2816 2815 2815 2815 2815 2814 2813 2813 2813 2813 2812 2811 2810 2810 2810 2809 2808 2807 2807 2805 2803 2802 2801 2803 2804 2805 2804 2803 2802 2802 2801 2801 2803 2804 2805 2805 2804 2804 2805 2804 2804 2804 2804 2805 2804 2804 2803 2803 2803 2804 2805 2807 2809 2811 2812 2814 2814 2815 2817 2818 2819 2820 2822 2823 2824 2825 2825 2826 2827 2828 2829 2830 2831 2832 2834 2835 2836 2837 2838 2839 2840 2841
2818 2816 2815 2813 2812 2811 2811 2812 2811 2810 2809 2809 2809 2809 2808 2808 2807 2807 2807 2806 2805 2804 2803 2802 2801 2798 2796 2797 2799 2800 2800 2799 2798 2797 2797 2796 2797 2799 2800 2800 2800 2800 2800 2800 2800 2800 2800 2800 2800 2799 2799 2798 2798 2799 2801 2803 2804 2806 2807 2808 2809 2810 2811 2812 2813 2815 2816 2818 2819 2820 2821 2822 2823 2824 2824 2825 2826 2827 2828 2830 2831 2833 2834 2834 2835 2837
2814 2813 2811 2810 2809 2808 2807 2807 2807 2807 2806 2806 2805 2804 2804 2804 2804 2803 2802 2801 2801 2800 2799 2799 2798 2796 2794 2793 2793 2795 2796 2795 2794 2793 2792 2791 2792 2794 2795 2795 2795 2796 2796 2796 2796 2796 2796 2796 2796 2796 2795 2794 2794 2795 2797 2798 2800 2801 2802 2803 2804 2804 2805 2807 2809 2810 2811 2813 2814 2815 2816 2817 2818 2819 2820 2821 2822 2823 2824 2825 2826 2828 2829 2830 2832 2833
2810 2809 2809 2807 2805 2804 2804 2804 2803 2803 2803 2802 2801 2800 2799 2799 2799 2799 2798 2797 2797 2796 2795 2794 2793 2792 2792 2790 2789 2791 2792 2791 2790 2789 2788 2786 2787 2789 2790 2791 2791 2791 2792 2792 2792 2792 2792 2792 2792 2792 2792 2791 2791 2791 2793 2794 2796 2797 2798 2799 2799 2800 2802 2803 2804 2806 2807 2808 2809 2810 2811 2812 2814 2814 2815 2816 2818 2819 2820 2821 2822 2824 2825 2826 2828 2829
2806 2806 2805 2804 2802 2801 2800 2800 2800 2800 2799 2799 2798 2796 2795 2794 2794 2794 2793 2793 2793 2793 2792 2792 2790 2788 2788 2787 2786 2787 2788 2788 2787 2785 2784 2783 2783 2784 2785 2786 2787 2787 2787 2788 2788 2788 2788 2788 2789 2789 2789 2789 2788 2789 2789 2790 2792 2793 2794 2794 2795 2797 2798 2799 2800 2801 2802 2802 2803 2804 2806 2808 2809 2810 2811 2812 2814 2815 2817 2818 2819 2819 2821 2822 2824 2825
2802 2801 2801 2801 2800 2798 2796 2796 2797 2798 2797 2796 2794 2793 2791 2790 2790 2789 2789 2789 2789 2788 2787 2787 2785 2785 2785 2784 2783 2783 2784 2784 2784 2782 2780 2779 2779 2779 2781 2782 2782 2782 2782 2783 2784 2784 2784 2784 2784 2785 2786 2785 2785 2785 2786 2787 2788 2789 2789 2791 2792 2793 2794 2795 2796 2797 2797 2798 2799 2800 2801 2803 2804 2805 2807 2808 2810 2811 2813 2814 2815 2816 2817 2819 2820 2821
2799 2797 2797 2798 2797 2796 2794 2793 2794 2794 2794 2793 2791 2790 2788 2787 2786 2785 2784 2784 2784 2783 2782 2782 2781 2780 2780 2779 2779 2779 2781 2781 2780 2779 2778 2775 2774 2774 2778 2778 2778 2778 2778 2778 2779 2780 2780 2780 2780 2781 2781 2781 2781 2782 2782 2783 2784 2785 2786 2787 2788 2789 2789 2790 2791 2792 2793 2794 2795 2796 2797 2799 2800 2801 2803 2804 2805 2807 2809 2810 2811 2813 2814 2815 2816 2818
2797 2794 2794 2794 2794 2793 2792 2791 2790 2790 2790 2789 2788 2786 2785 2784 2783 2781 2780 2780 2779 2778 2778 2777 2776 2776 2776 2775 2775 2775 2777 2777 2777 2777 2775 2772 2770 2770 2774 2773 2773 2773 2773 2774 2775 2775 2775 2776 2776 2776 2777 2777 2777 2778 2779 2779 2780 2781 2782 2783 2784 2784 2785 2786 2787 2788 2789 2790 2791 2792 2794 2795 2796 2797 2798 2800 2802 2803 2805 2807 2808 2809 2810 2811 2813 2814
2794 2792 2791 2790 2790 2790 2789 2788 2787 2787 2786 2785 2784 2783 2782 2781 2780 2779 2777 2777 2776 2775 2774 2773 2772 2771 2770 2771 2771 2771 2772 2774 2774 2773 2772 2769 2767 2767 2769 2769 2769 2769 2769 2770 2770 2770 2771 2772 2772 2772 2773 2773 2773 2774 2774 2775 2776 2777 2778 2779 2779 2780 2781 2781 2782 2783 2784 2785 2787 2789 2790 2791 2792 2793 2794 2796 2798 2799 2801 2803 2804 2806 2807 2808 2809 2810
2790 2789 2788 2788 2787 2787 2786 2785 2784 2784 2783 2782 2780 2779 2778 2777 2776 2775 2774 2773 2772 2772 2770 2769 2768 2766 2766 2767 2767 2767 2768 2769 2770 2769 2769 2766 2765 2764 2765 2765 2765 2765 2765 2766 2766 2766 2767 2768 2768 2769 2769 2769 2770 2770 2771 2772 2772 2773 2774 2774 2775 2776 2776 2777 2778 2779 2780 2781 2783 2784 2786 2787 2789 2789 2791 2792 2794 2796 2797 2799 2801 2802 2803 2804 2805 2806
2788 2787 2786 2785 2785 2784 2783 2782 2781 2780 2779 2779 2778 2776 2775 2774 2772 2771 2770 2769 2769 2769 2767 2765 2764 2762 2762 2762 2762 2762 2764 2765 2765 2765 2765 2764 2762 2761 2761 2761 2761 2762 2762 2761 2762 2762 2763 2764 2764 2765 2765 2766 2766 2767 2767 2768 2769 2769 2770 2770 2771 2771 2772 2773 2774 2775 2776 2778 2779 2781 2782 2784 2785 2786 2788 2789 2790 2792 2794 2795 2797 2798 2799 2800 2801 2803
2786 2785 2784 2783 2781 2780 2779 2778 2777 2776 2776 2775 2775 2774 2773 2771 2769 2767 2766 2766 2766 2766 2764 2762 2759 2758 2758 2758 2758 2758 2760 2761 2761 2761 2762 2761 2759 2757 2757 2757 2758 2758 2758 2758 2758 2759 2759 2760 2761 2761 2762 2763 2763 2764 2764 2764 2765 2765 2766 2766 2766 2767 2768 2769 2770 2771 2773 2774 2776 2777 2779 2780 2781 2783 2784 2785 2787 2788 2790 2791 2793 2794 2795 2797 2798 2799
2782 2781 2780 2779 2778 2776 2775 2774 2774 2773 2772 2772 2771 2771 2770 2769 2767 2764 2763 2763 2763 2762 2760 2758 2756 2755 2754 2753 2754 2754 2756 2756 2756 2757 2758 2758 2756 2754 2753 2754 2754 2754 2754 2754 2754 2755 2755 2756 2757 2758 2759 2759 2759 2760 2760 2760 2761 2761 2761 2762 2762 2763 2764 2765 2766 2768 2769 2771 2772 2774 2775 2776 2778 2779 2780 2782 2783 2785 2786 2788 2789 2790 2792 2793 2794 2796
2778 2777 2776 2775 2774 2773 2771 2770 2770 2769 2769 2768 2768 2767 2767 2766 2764 2762 2760 2760 2759 2758 2755 2754 2753 2752 2751 2750 2749 2749 2750 2752 2752 2753 2754 2754 2752 2750 2750 2750 2751 2750 2750 2750 2750 2751 2751 2752 2754 2754 2755 2755 2756 2756 2756 2757 2757 2757 2757 2758 2758 2759 2760 2761 2763 2764 2766 2767 2769 2770 2771 2773 2774 2775 2777 2778 2780 2781 2783 2784 2786 2787 2789 2790 2792 2793
2774 2773 2771 2771 2770 2769 2768 2766 2766 2765 2765 2764 2764 2764 2763 2762 2760 2759 2757 2756 2755 2754 2752 2751 2750 2749 2748 2747 2746 2744 2745 2747 2748 2749 2750 2749 2748 2746 2747 2747 2747 2746 2747 2747 2747 2747 2747 2748 2749 2751 2751 2752 2752 2752 2752 2752 2753 2753 2753 2754 2755 2756 2757 2758 2759 2761 2762 2764 2765 2766 2768 2769 2770 2772 2773 2775 2777 2778 2780 2781 2783 2784 2786 2787 2789 2790
2769 2768 2767 2766 2765 2764 2763 2762 2761 2761 2760 2760 2759 2759 2758 2757 2756 2755 2754 2753 2752 2751 2749 2747 2746 2746 2745 2744 2743 2741 2740 2742 2743 2744 2745 2745 2744 2743 2743 2743 2743 2742 2743 2743 2743 2743 2743 2744 2745 2747 2748 2748 2748 2748 2748 2748 2748 2749 2749 2750 2751 2752 2754 2755 2756 2758 2759 2760 2761 2763 2764 2766 2767 2769 2770 2772 2774 2775 2777 2779 2780 2782 2783 2785 2786 2787
2765 2764 2763 2762 2761 2760 2759 2758 2757 2756 2756 2755 2755 2754 2754 2753 2752 2751 2750 2749 2749 2747 2746 2744 2743 2742 2742 2742 2740 2738 2737 2738 2739 2740 2740 2741 2740 2739 2739 2739 2739 2739 2739 2739 2740 2740 2739 2740 2741 2743 2744 2744 2744 2744 2744 2744 2744 2745 2745 2746 2747 2749 2750 2752 2753 2754 2755 2757 2758 2759 2761 2763 2764 2766 2768 2769 2771 2773 2775 2776 2778 2779 2780 2782 2783 2784
2761 2760 2759 2758 2757 2756 2755 2754 2753 2752 2751 2751 2750 2750 2749 2749 2748 2747 2746 2745 2745 2744 2742 2741 2739 2739 2738 2738 2736 2735 2734 2735 2736 2737 2737 2737 2737 2736 2735 2735 2735 2735 2735 2735 2736 2736 2736 2737 2738 2739 2740 2740 2740 2740 2740 2741 2741 2741 2742 2743 2744 2745 2747 2748 2749 2751 2752 2754 2755 2757 2758 2760 2762 2764 2765 2767 2769 2771 2773 2774 2775 2776 2778 2779 2779 2780
2758 2757 2756 2754 2753 2752 2751 2750 2749 2748 2747 2747 2746 2745 2744 2744 2743 2743 2742 2741 2741 2740 2739 2738 2736 2735 2734 2733 2732 2731 2731 2733 2734 2734 2734 2734 2733 2732 2732 2731 2731 2731 2731 2732 2732 2733 2733 2733 2734 2735 2736 2736 2737 2737 2737 2737 2738 2738 2739 2740 2741 2742 2743 2745 2746 2748 2749 2751 2753 2754 2756 2758 2760 2761 2763 2765 2767 2769 2770 2771 2772 2774 2774 2775 2776 2778
2755 2754 2753 2751 2750 2749 2747 2746 2745 2744 2744 2743 2742 2741 2740 2739 2739 2738 2738 2737 2736 2736 2735 2734 2733 2732 2731 2729 2728 2727 2728 2730 2731 2731 2731 2730 2729 2729 2728 2727 2727 2727 2728 2728 2728 2729 2729 2730 2730 2731 2732 2733 2733 2733 2734 2734 2734 2735 2736 2737 2738 2739 2740 2742 2744 2746 2748 2749 2751 2753 2754 2756 2758 2760 2762 2764 2765 2766 2768 2769 2769 2770 2772 2773 2774 2775
2752 2750 2749 2748 2746 2745 2744 2743 2742 2741 2739 2739 2738 2737 2736 2735 2735 2734 2733 2733 2732 2731 2731 2730 2729 2729 2728 2726 2725 2724 2724 2726 2727 2727 2727 2726 2726 2725 2724 2724 2724 2724 2724 2724 2725 2725 2726 2727 2727 2728 2729 2729 2729 2729 2730 2731 2731 2732 2733 2734 2735 2737 2739 2740 2742 2744 2746 2748 2749 2751 2753 2755 2757 2758 2760 2762 2763 2764 2765 2766 2767 2768 2769 2771 2772 2774
2749 2747 2746 2745 2743 2742 2740 2739 2738 2737 2736 2734 2734 2733 2732 2731 2731 2730 2729 2729 2728 2727 2726 2726 2725 2724 2724 2723 2722 2721 2721 2722 2723 2723 2723 2723 2722 2722 2721 2720 2720 2721 2721 2721 2722 2722 2723 2723 2724 2724 2725 2726 2726 2726 2727 2728 2728 2729 2730 2732 2733 2735 2737 2739 2740 2742 2744 2746 2748 2749 2751 2753 2755 2757 2758 2759 2760 2761 2762 2763 2764 2766 2767 2769 2771 2772
2746 2744 2743 2742 2740 2739 2737 2736 2734 2733 2732 2731 2730 2729 2728 2728 2727 2726 2725 2724 2724 2723 2722 2721 2721 2720 2720 2719 2719 2719 2719 2719 2719 2719 2719 2719 2719 2718 2718 2718 2718 2718 2718 2719 2719 2719 2720 2720 2721 2721 2722 2722 2723 2724 2724 2725 2726 2727 2729 2730 2732 2734 2735 2737 2739 2741 2743 2744 2746 2748 2750 2752 2753 2754 2756 2757 2758 2759 2760 2761 2763 2764 2766 2768 2769 2771
2743 2742 2740 2739 2737 2736 2734 2732 2731 2729 2728 2727 2726 2725 2724 2724 2723 2722 2721 2720 2719 2719 2718 2717 2717 2716 2716 2716 2716 2715 2715 2715 2715 2715 2715 2715 2715 2714 2714 2714 2714 2715 2715 2716 2716 2716 2717 2718 2718 2719 2719 2720 2720 2721 2722 2723 2724 2726 2728 2729 2731 2733 2735 2736 2738 2740 2742 2744 2745 2747 2749 2750 2751 2752 2753 2754 2755 2757 2758 2759 2761 2763 2764 2766 2768 2769
2740 2739 2737 2736 2734 2733 2731 2729 2727 2726 2724 2723 2722 2721 2720 2719 2719 2718 2717 2716 2715 2714 2714 2713 2713 2713 2712 2712 2712 2712 2712 2712 2712 2712 2712 2711 2711 2711 2711 2711 2712 2712 2713 2713 2714 2714 2714 2715 2716 2716 2717 2718 2719 2719 2720 2721 2723 2725 2727 2729 2730 2732 2734 2736 2738 2739 2741 2743 2744 2745 2747 2748 2749 2750 2751 2753 2754 2755 2757 2758 2759 2761 2763 2764 2765 2767
2738 2736 2734 2733 2732 2730 2728 2726 2724 2723 2721 2720 2719 2718 2717 2715 2714 2714 2713 2712 2711 2711 2710 2709 2709 2709 2709 2709 2709 2708 2708 2708 2708 2708 2708 2708 2708 2708 2708 2709 2709 2709 2710 2710 2711 2712 2712 2713 2713 2713 2714 2715 2717 2718 2719 2721 2723 2724 2726 2728 2730 2732 2734 2735 2737 2738 2740 2741 2742 2744 2745 2746 2747 2749 2750 2751 2753 2754 2755 2756 2758 2759 2761 2762 2764 2765
2735 2734 2732 2730 2729 2727 2725 2723 2721 2719 2718 2717 2715 2714 2713 2712 2710 2710 2709 2709 2708 2707 2707 2706 2706 2706 2705 2705 2705 2705 2705 2704 2704 2705 2705 2705 2705 2705 2705 2706 2706 2707 2708 2708 2709 2709 2710 2710 2711 2712 2713 2714 2716 2718 2719 2721 2723 2724 2726 2728 2730 2731 2733 2734 2736 2737 2738 2739 2741 2742 2743 2744 2746 2747 2749 2750 2751 2752 2754 2755 2756 2758 2759 2760 2762 2763
2733 2731 2729 2728 2725 2724 2722 2720 2718 2716 2715 2714 2712 2711 2709 2708 2707 2706 2706 2705 2704 2704 2704 2703 2703 2703 2702 2702 2702 2702 2701 2701 2702 2702 2702 2702 2702 2703 2703 2704 2704 2705 2706 2706 2707 2708 2709 2709 2711 2712 2713 2715 2716 2718 2719 2721 2723 2724 2726 2728 2729 2730 2732 2733 2734 2735 2737 2738 2739 2741 2742 2743 2744 2746 2747 2748 2749 2751 2752 2754 2755 2756 2758 2759 2760 2762
2730 2729 2727 2724 2722 2720 2719 2717 2715 2713 2712 2710 2709 2708 2706 2705 2704 2703 2703 2702 2701 2701 2700 2700 2700 2700 2700 2699 2699 2699 2699 2699 2699 2699 2699 2699 2700 2701 2701 2702 2703 2704 2704 2705 2706 2707 2709 2710 2711 2712 2714 2715 2717 2718 2720 2721 2723 2724 2725 2727 2728 2729 2731 2732 2733 2734 2736 2737 2738 2739 2741 2742 2743 2744 2746 2747 2748 2749 2750 2752 2753 2754 2756 2757 2759 2759
2728 2726 2724 2721 2719 2717 2715 2714 2712 2710 2709 2707 2706 2705 2704 2702 2701 2700 2700 2699 2699 2698 2698 2698 2697 2697 2697 2697 2697 2696 2696 2696 2697 2697 2697 2698 2699 2699 2700 2701 2702 2703 2704 2705 2706 2707 2709 2710 2711 2712 2714 2715 2716 2718 2719 2721 2722 2723 2725 2726 2727 2729 2730 2731 2732 2734 2735 2736 2737 2739 2740 2741 2742 2743 2744 2745 2747 2748 2749 2750 2752 2753 2754 2755 2756 2757
2725 2723 2720 2718 2716 2714 2712 2710 2709 2707 2706 2704 2703 2702 2700 2699 2699 2698 2697 2697 2696 2696 2696 2695 2695 2695 2695 2694 2694 2694 2694 2694 2695 2695 2696 2697 2698 2699 2700 2701 2702 2703 2704 2705 2706 2707 2708 2709 2711 2712 2714 2715 2716 2717 2719 2720 2721 2722 2724 2725 2726 2727 2729 2730 2731 2732 2734 2735 2736 2738 2739 2740 2741 2742 2743 2744 2745 2746 2748 2749 2750 2751 2752 2753 2754 2755
2722 2719 2717 2715 2713 2711 2709 2708 2706 2704 2703 2702 2700 2699 2698 2697 2696 2695 2695 2694 2694 2694 2694 2694 2694 2693 2693 2693 2693 2693 2693 2693 2694 2694 2695 2696 2698 2699 2700 2701 2702 2703 2704 2704 2705 2706 2708 2709 2710 2712 2713 2714 2715 2717 2718 2719 2720 2721 2723 2724 2725 2727 2728 2729 2730 2731 2733 2734 2735 2736 2737 2739 2739 2741 2742 2743 2744 2745 2746 2747 2748 2749 2750 2751 2752 2753
2719 2716 2714 2712 2710 2708 2707 2705 2703 2702 2700 2699 2698 2697 2695 2694 2694 2694 2693 2693 2693 2693 2692 2692 2692 2691 2691 2691 2691 2691 2692 2692 2693 2694 2695 2696 2698 2699 2699 2700 2701 2702 2703 2704 2705 2706 2707 2709 2710 2711 2712 2714 2714 2716 2717 2718 2719 2720 2722 2723 2724 2726 2727 2728 2729 2730 2732 2733 2734 2735 2736 2737 2738 2739 2740 2741 2742 2743 2744 2745 2746 2747 2748 2749 2749 2750
2717 2714 2712 2709 2708 2706 2704 2702 2701 2699 2698 2696 2695 2694 2693 2693 2692 2692 2692 2692 2691 2691 2691 2690 2690 2690 2690 2690 2690 2690 2691 2691 2692 2694 2695 2696 2698 2699 2699 2700 2701 2702 2703 2704 2705 2706 2707 2708 2709 2710 2712 2713 2714 2715 2716 2717 2719 2720 2721 2723 2724 2725 2726 2727 2728 2729 2730 2732 2733 2734 2735 2736 2737 2738 2739 2739 2740 2741 2742 2743 2744 2744 2745 2746 2747 2748
2714 2712 2710 2707 2705 2704 2702 2700 2699 2697 2695 2694 2693 2693 2692 2691 2691 2691 2691 2691 2690 2690 2689 2689 2689 2689 2689 2689 2689 2690 2691 2691 2693 2694 2695 2696 2697 2698 2699 2700 2701 2702 2703 2704 2705 2706 2707 2708 2709 2710 2711 2712 2713 2714 2715 2717 2718 2719 2720 2722 2723 2724 2725 2726 2727 2728 2729 2730 2731 2732 2733 2734 2735 2736 2737 2738 2739 2739 2740 2741 2741 2742 2743 2744 2745 2746
2712 2710 2708 2705 2703 2701 2699 2698 2696 2694 2693 2692 2691 2691 2690 2690 2690 2690 2689 2689 2689 2689 2688 2688 2688 2688 2688 2689 2689 2690 2691 2692 2693 2694 2695 2696 2697 2698 2699 2700 2701 2702 2703 2704 2705 2706 2707 2708 2709 2709 2710 2712 2713 2714 2715 2716 2717 2719 2719 2721 2722 2723 2724 2725 2726 2727 2728 2729 2730 2731 2732 2733 2734 2734 2735 2736 2737 2737 2738 2739 2739 2740 2740 2741 2742 2743